Retour au catalogue

STARLINK-31869

ActifCommunicationsVLEO
NORAD 60196·PAYLOAD·🇺🇸 United States

Lancé Jul 3, 2024 depuis Cape Canaveral Space Force Station

Loading…

Prochains Passages (prochaines 24 heures)

TLE

FraisSource: CelesTrak SupGP

Époque: Sep 14, 2026, 21:35 UTC

1 60196C 24124P   26257.89979167 -.00049851  00000+0 -16021-2 0  2570
2 60196  53.1569 162.1510 0001325  89.4560 340.2135 15.31747033    15

Suivez STARLINK-31869 en temps réel avec AllMySat

Download on the App Store